This demonstration page uses our WeatherBlox Daily Observations layout. Learn more.

Left ArrowRight Arrow

38.89511, -77.03637

Hourly Observations for March 3, 2019

Temp ( °F °C ) Dew Point ( °F °C ) Humidity (%) Winds ( mph kmh ) Pressure ( in mb ) Visibility ( mi km ) Precip ( " mm )
12:52 am 00:52 Cloudy 46 7.8 31 -0.6 56 56 WNW 3 6 30.14 1021 10 16 N/A
1:52 am 01:52 Cloudy 45 7.2 30 -1.1 56 56 NW 6 9 30.13 1020 10 16 N/A
2:52 am 02:52 Cloudy 45 7.2 28 -2.2 52 52 NW 6 9 30.13 1020 10 16 N/A
3:52 am 03:52 Cloudy 44 6.7 29 -1.7 55 55 NNW 7 11 30.13 1020 10 16 N/A
4:52 am 04:52 Cloudy 44 6.7 28 -2.2 53 53 NNW 6 9 30.14 1021 10 16 N/A
5:52 am 05:52 Cloudy 43 6.1 29 -1.7 58 58 NNE 9 15 30.14 1021 10 16 N/A
6:52 am 06:52 Cloudy 42 5.6 27 -2.8 55 55 NNE 9 15 30.15 1021 10 16 N/A
7:52 am 07:52 Cloudy 42 5.6 27 -2.8 55 55 ENE 7 11 30.17 1022 10 16 N/A
8:52 am 08:52 Cloudy 42 5.6 25 -3.9 51 51 NE 6 9 30.18 1022 10 16 N/A
9:52 am 09:52 Cloudy 43 6.1 25 -3.9 49 49 ENE 5 7 30.17 1022 10 16 N/A
10:52 am 10:52 Cloudy 44 6.7 28 -2.2 53 53 NE 6 9 30.14 1021 10 16 N/A
11:52 am 11:52 Cloudy 43 6.1 29 -1.7 58 58 ESE 5 7 30.11 1020 10 16 N/A
12:52 pm 12:52 Cloudy with Light Rain 42 5.6 32 undefined 68 68 E 9 15 30.07 1018 10 16 N/A
1:52 pm 13:52 Cloudy with Light Rain 40 4.4 32 undefined 73 73 ENE 9 15 30.04 1017 7 11 N/A
2:04 pm 14:04 Cloudy with Light Rain/Snow 39 3.9 32 undefined 76 76 E 6 9 30.05 1018 5 8 0.01 0.25
2:30 pm 14:30 Cloudy with Light Rain/Snow 38 3.3 33 0.6 83 83 NE 12 19 30.01 1016 7 11 0.02 0.51
2:52 pm 14:52 Cloudy with Light Rain 38 3.3 33 0.6 83 83 ENE 10 17 29.99 1016 7 11 0.02 0.51
3:01 pm 15:01 Cloudy with Light Rain 38 3.3 33 0.6 83 83 ENE 10 17 29.99 1016 7 11 N/A
3:27 pm 15:27 Cloudy with Light Rain 37 2.8 33 0.6 86 86 ENE 9 15 29.98 1015 5 8 N/A
3:29 pm 15:29 Cloudy 38 3.3 33 0.6 83 83 ENE 7 11 29.98 1015 5 8 N/A
3:37 pm 15:37 Cloudy with Rain 37 2.8 33 0.6 86 86 E 8 13 29.98 1015 4 6 0.01 0.25
3:39 pm 15:39 Cloudy with Rain 37 2.8 33 0.6 86 86 ENE 7 11 29.97 1015 4 6 0.02 0.51
3:52 pm 15:52 Cloudy with Light Rain 37 2.8 33 0.6 86 86 ENE 7 11 29.97 1015 5 8 0.03 0.76
4:52 pm 16:52 Cloudy with Light Rain 37 2.8 33 0.6 86 86 ENE 8 13 29.92 1013 4 6 0.02 0.51
5:47 pm 17:47 Cloudy with Light Rain 37 3 34 1 87 87 ENE 7 11 29.91 1013 4 6 0.04 1.02
5:52 pm 17:52 Cloudy with Rain 37 2.8 34 1.1 89 89 ENE 6 9 29.90 1013 5 8 0.05 1.27
5:58 pm 17:58 Cloudy with Rain 37 2.8 33 0.6 86 86 ENE 7 11 29.90 1013 5 8 N/A
6:09 pm 18:09 Cloudy with Rain 37 2.8 33 0.6 86 86 ENE 9 15 29.89 1012 4 6 0.02 0.51
6:14 pm 18:14 Cloudy with Rain 37 2.8 33 0.6 86 86 ENE 8 13 29.89 1012 4 6 0.03 0.76
6:52 pm 18:52 Cloudy with Rain 37 2.8 33 0.6 86 86 N 10 17 29.89 1012 5 8 0.08 2.03
7:24 pm 19:24 Cloudy with Light Rain 37 2.8 33 0.6 86 86 NNE 13 20 29.88 1012 8 13 0.03 0.76
7:36 pm 19:36 Cloudy with Rain 37 2.8 33 0.6 86 86 NE 12 19 29.87 1012 4 6 0.05 1.27
7:52 pm 19:52 Cloudy with Heavy Rain 37 2.8 33 0.6 86 86 NNE 9 15 29.88 1012 4 6 0.08 2.03
8:52 pm 20:52 Cloudy with Rain 37 2.8 33 0.6 86 86 NNE 13 20 29.85 1011 5 8 0.14 3.56
9:06 pm 21:06 Cloudy with Light Rain 37 2.8 33 0.6 86 86 ENE 16 26 29.81 1010 7 11 0.02 0.51
9:17 pm 21:17 Cloudy with Light Rain 37 2.8 34 1.1 89 89 ENE 14 22 29.79 1009 7 11 0.03 0.76
9:52 pm 21:52 Cloudy with Rain 37 2.8 34 1.1 89 89 N 10 17 29.81 1010 7 11 0.07 1.78
10:39 pm 22:39 Cloudy with Light Rain 37 2.8 34 1.1 89 89 NNE 13 20 29.78 1009 10 16 0.02 0.51
10:52 pm 22:52 Cloudy with Light Rain 38 3.3 34 1.1 86 86 NNE 13 20 29.78 1008 10 16 0.02 0.51
11:47 pm 23:47 Cloudy with Light Rain 37 3 34 1 87 87 N 12 19 29.74 1007 10 16 0.01 0.25
11:52 pm 23:52 Cloudy with Light Rain 38 3.3 34 1.1 86 86 N 13 20 29.74 1007 10 16 0.01 0.25

Powered by AerisWeather